Overview Statistics Trail Chart Weather Telemetry Raw packets
 

This is the latest recevied weather packets stored in our database for station/object YO8RBY-2. If no packets are shown the sender has not sent any weather packets the latest 10 day(s).

<< 3 4 5 6 7 8 9 >>
Time Temp. Humidity Pressure Rain* Wind** Luminosity Snow
1788247800 25° C 46% 974 hPa - - 0 W/m² -
1788245975 25° C 45% 974 hPa - - 0 W/m² -
1788244151 25.56° C 45% 973 hPa - - 0 W/m² -
1788242300 24.44° C 47% 973 hPa - - 0 W/m² -
1788240484 25.56° C 46% 973 hPa - - 0 W/m² -
1788238668 24.44° C 48% 973 hPa - - 0 W/m² -
1788236827 22.78° C 53% 973 hPa - - 0 W/m² -
1788235003 22.22° C 55% 973 hPa - - 0 W/m² -
1788233179 22.78° C 54% 973 hPa - - 0 W/m² -
1788231355 22.22° C 54% 973 hPa - - 0 W/m² -
1788227707 22.22° C 55% 973 hPa - - 0 W/m² -
1788225882 21.67° C 59% 973 hPa - - 0 W/m² -
1788224058 22.22° C 57% 973 hPa - - 0 W/m² -
1788222234 22.22° C 57% 973 hPa - - 0 W/m² -
1788220410 21.67° C 57% 973 hPa - - 0 W/m² -
1788218586 21.67° C 57% 974 hPa - - 0 W/m² -
1788216762 21.67° C 56% 974 hPa - - 0 W/m² -
1788214937 22.22° C 55% 974 hPa - - 0 W/m² -
1788213113 22.78° C 54% 974 hPa - - 0 W/m² -
1788211297 23.33° C 53% 974 hPa - - 0 W/m² -
1788209470 23.33° C 52% 974 hPa - - 0 W/m² -
1788207641 23.89° C 51% 974 hPa - - 0 W/m² -
1788205817 23.89° C 52% 974 hPa - - 0 W/m² -
1788203993 24.44° C 51% 974 hPa - - 0 W/m² -
1788202168 25° C 48% 974 hPa - - 0 W/m² -

* Rain since midnight (hover to see other rain measurements)
** Current wind speed in m/s (hover to see current wind gust speed)